Home > Weather > Chania > Past weeks

Flag for Greece Past Weather in Chania, Crete, Greece — Yesterday and Last 2 Weeks

Now
86 °F

Passing clouds.


Feels Like: 87 °F
Forecast: 72 / 86 °F
Wind: 12 mph from Northeast

Location: Souda Airport

Current Time: Jun 29, 2016 at 3:44:41 PM

Latest Report: Jun 29, 2016 at 2:50 PM


Visibility: N/A

Pressure: 29.83 "Hg

Humidity: 46%

Dew Point: 63 °F

Location of ChaniaLocation

Past Weather in Chania — Graph

°F

Chania Temperature Yesterday

Maximum temperature yesterday: 95 °F (at 4:20 PM)
Minimum temperature yesterday: 79 °F (at 12:20 AM)
Average temperature yesterday: 85 °F

High & Low Weather Summary for the Past Weeks

 TemperatureHumidityPressure
High102 °F (Jun 19, 12:20 PM)94% (Jun 22, 12:50 AM)30.04 "Hg (Jun 22, 12:50 AM)
Low70 °F (Jun 15, 12:20 AM)26% (Jun 19, 9:20 AM)29.62 "Hg (Jun 14, 2:20 PM)
Average82 °F60%29.87 "Hg
* Reported Jun 14 2:20 PM — Jun 29 2:20 PM, Chania, Weather by CustomWeather, © 2016

Note: Actual official high and low records may vary slightly from our data, if they occured in-between our weather recording intervals... More about our weather records

Advertising

Chania Weather History for the Previous 24 Hours

Scroll right to see more
 ConditionsComfort  
Time TempWeatherWind HumidityBarometerVisibility
2:20 PM
Wed, Jun 29
86 °FScattered clouds.9 mph46%29.83 "HgN/A
1:50 PM84 °FScattered clouds.14 mph55%29.86 "HgN/A
1:20 PM84 °FScattered clouds.16 mph55%29.86 "HgN/A
12:50 PM86 °FScattered clouds.12 mph46%29.86 "HgN/A
12:20 PM86 °FScattered clouds.12 mph49%29.86 "HgN/A
11:50 AM84 °FScattered clouds.10 mph48%29.86 "HgN/A
11:20 AM84 °FScattered clouds.8 mph51%29.83 "HgN/A
10:50 AM84 °FScattered clouds.13 mph51%29.83 "HgN/A
10:20 AM81 °FScattered clouds.13 mph58%29.83 "HgN/A
9:50 AM82 °FScattered clouds.9 mph62%29.83 "HgN/A
9:20 AM81 °FScattered clouds.5 mph70%29.83 "HgN/A
8:50 AM77 °FScattered clouds.5 mph79%29.83 "HgN/A
8:20 AM75 °FScattered clouds.6 mph89%29.80 "HgN/A
7:50 AM75 °FScattered clouds.7 mph89%29.77 "Hg6 mi
7:20 AM73 °FPassing clouds.8 mph94%29.80 "Hg5 mi
6:50 AM73 °FPassing clouds.8 mph94%29.80 "Hg5 mi
6:20 AM73 °FPassing clouds.10 mph94%29.80 "Hg4 mi
5:50 AM75 °FPassing clouds.8 mph89%29.77 "Hg4 mi
5:20 AM75 °FPassing clouds.15 mph83%29.77 "Hg6 mi
4:50 AM75 °FPassing clouds.15 mph78%29.77 "Hg6 mi
4:20 AM75 °FPassing clouds.14 mph78%29.77 "HgN/A
3:50 AM77 °FClear.16 mph74%29.74 "Hg10 mi
3:20 AM79 °FClear.9 mph54%29.74 "Hg10 mi
2:50 AM79 °FClear.10 mph54%29.74 "Hg10 mi
2:20 AM79 °FClear.12 mph54%29.74 "Hg10 mi
1:50 AM79 °FClear.13 mph54%29.74 "Hg10 mi
1:20 AM79 °FClear.15 mph58%29.74 "Hg10 mi
12:50 AM79 °FClear.15 mph58%29.77 "Hg10 mi
12:20 AM81 °FClear.16 mph54%29.77 "Hg10 mi
11:50 PM
Tue, Jun 28
81 °FClear.15 mph54%29.77 "Hg10 mi
11:20 PM81 °FClear.17 mph54%29.77 "Hg10 mi
10:50 PM81 °FClear.16 mph54%29.77 "Hg10 mi
10:20 PM81 °FClear.18 mph54%29.77 "Hg10 mi
9:50 PM81 °FClear.12 mph48%29.77 "Hg10 mi
9:20 PM82 °FSunny.18 mph51%29.77 "Hg10 mi
8:50 PM82 °FSunny.8 mph48%29.77 "Hg10 mi
8:20 PM84 °FSunny.16 mph51%29.77 "Hg10 mi
7:50 PM84 °FPassing clouds.9 mph48%29.74 "HgN/A
7:20 PM84 °FPassing clouds.8 mph58%29.74 "HgN/A
6:50 PM88 °FPassing clouds.12 mph46%29.74 "HgN/A
6:20 PM88 °FPassing clouds.15 mph49%29.77 "HgN/A
5:50 PM90 °FPassing clouds.10 mph43%29.77 "HgN/A
5:20 PM90 °FPassing clouds.20 mph46%29.77 "HgN/A
4:50 PM91 °FPassing clouds.16 mph41%29.77 "HgN/A
4:20 PM95 °FPassing clouds.12 mph41%29.77 "HgN/A
3:50 PM91 °FPassing clouds.12 mph38%29.77 "HgN/A
3:20 PM91 °FPassing clouds.12 mph41%29.80 "HgN/A
Weather by CustomWeather, © 2016

See weather overviewHow to use our weather pages